Time,TemperatureF,DewpointF,PressureIn,WindDirection,WindDirectionDegrees,WindSpeedMPH,WindSpeedGustMPH,Humidity,HourlyPrecipIn,Conditions,Clouds,dailyrainin,SolarRadiationWatts/m^2,SoftwareType,DateUTC
2013-08-18 00:02:00,59.0,57.0,-100.00,SSE,167,0.0,4.0,93,0.00,,,0.00,0.000000,,2013-08-18 05:02:00,
2013-08-18 00:12:00,59.0,57.0,-100.00,SSE,167,0.0,4.0,93,0.00,,,0.00,0.000000,,2013-08-18 05:12:00,
2013-08-18 00:43:00,58.0,56.0,-100.00,NE,48,0.0,1.0,93,0.00,,,0.00,0.000000,,2013-08-18 05:43:00,
2013-08-18 00:52:00,58.0,56.0,-100.00,NE,48,0.0,1.0,93,0.00,,,0.00,0.000000,,2013-08-18 05:52:00,
2013-08-18 01:01:00,58.0,56.0,-100.00,NE,48,0.0,1.0,93,0.00,,,0.00,0.000000,,2013-08-18 06:01:00,
2013-08-18 01:11:00,58.0,56.0,-100.00,NE,48,0.0,1.0,93,0.00,,,0.00,0.000000,,2013-08-18 06:11:00,
2013-08-18 01:42:00,57.0,56.0,-100.00,East,95,2.0,2.0,96,0.00,,,0.00,0.000000,,2013-08-18 06:42:00,
2013-08-18 01:52:00,57.0,56.0,-100.00,East,95,2.0,2.0,96,0.00,,,0.00,0.000000,,2013-08-18 06:52:00,
2013-08-18 02:01:00,57.0,56.0,-100.00,East,95,2.0,2.0,96,0.00,,,0.00,0.000000,,2013-08-18 07:01:00,
2013-08-18 02:11:00,57.0,56.0,-100.00,East,95,2.0,2.0,96,0.00,,,0.00,0.000000,,2013-08-18 07:11:00,
2013-08-18 02:42:00,55.0,55.0,-100.00,ENE,62,0.0,2.0,100,0.00,,,0.00,0.000000,,2013-08-18 07:42:00,
2013-08-18 02:52:00,55.0,55.0,-100.00,ENE,62,0.0,2.0,100,0.00,,,0.00,0.000000,,2013-08-18 07:52:00,
2013-08-18 03:01:00,55.0,55.0,-100.00,ENE,62,0.0,2.0,100,0.00,,,0.00,0.000000,,2013-08-18 08:01:00,
2013-08-18 03:12:00,55.0,55.0,-100.00,ENE,62,0.0,2.0,100,0.00,,,0.00,0.000000,,2013-08-18 08:12:00,
2013-08-18 03:42:00,54.0,54.0,-100.00,ENE,60,0.0,3.0,100,0.00,,,0.00,0.000000,,2013-08-18 08:42:00,
2013-08-18 03:52:00,54.0,54.0,-100.00,ENE,60,0.0,3.0,100,0.00,,,0.00,0.000000,,2013-08-18 08:52:00,
2013-08-18 04:01:00,54.0,54.0,-100.00,ENE,60,0.0,3.0,100,0.00,,,0.00,0.000000,,2013-08-18 09:01:00,
2013-08-18 04:11:00,54.0,54.0,-100.00,ENE,60,0.0,3.0,100,0.00,,,0.00,0.000000,,2013-08-18 09:11:00,
2013-08-18 04:43:00,53.0,53.0,-100.00,East,82,0.0,1.0,100,0.00,,,-99.99,0.000000,,2013-08-18 09:43:00,
2013-08-18 04:53:00,53.0,53.0,-100.00,East,82,0.0,1.0,100,0.00,,,-99.99,0.000000,,2013-08-18 09:53:00,
2013-08-18 05:03:00,53.0,53.0,-100.00,East,82,0.0,1.0,100,0.00,,,-99.99,0.000000,,2013-08-18 10:03:00,
2013-08-18 05:13:00,53.0,53.0,-100.00,East,82,0.0,1.0,100,0.00,,,-99.99,0.000000,,2013-08-18 10:13:00,
2013-08-18 05:43:00,53.0,53.0,-100.00,ENE,67,0.0,3.0,100,0.00,,,0.00,0.000000,,2013-08-18 10:43:00,
2013-08-18 05:52:00,53.0,53.0,-100.00,ENE,67,0.0,3.0,100,0.00,,,0.00,0.000000,,2013-08-18 10:52:00,
2013-08-18 06:02:00,53.0,53.0,-100.00,ENE,67,0.0,3.0,100,0.00,,,0.00,0.000000,,2013-08-18 11:02:00,
2013-08-18 06:11:00,53.0,53.0,-100.00,ENE,67,0.0,3.0,100,0.00,,,0.00,0.000000,,2013-08-18 11:11:00,
2013-08-18 06:42:00,52.0,52.0,-100.00,NE,49,0.0,2.0,100,0.00,,,0.00,1.000000,,2013-08-18 11:42:00,
2013-08-18 06:52:00,52.0,52.0,-100.00,NE,49,0.0,2.0,100,0.00,,,0.00,1.000000,,2013-08-18 11:52:00,
2013-08-18 07:01:00,52.0,52.0,-100.00,NE,49,0.0,2.0,100,0.00,,,0.00,1.000000,,2013-08-18 12:01:00,
2013-08-18 07:11:00,52.0,52.0,-100.00,NE,49,0.0,2.0,100,0.00,,,0.00,1.000000,,2013-08-18 12:11:00,
2013-08-18 07:42:00,56.0,56.0,-100.00,NE,48,0.0,1.0,100,0.00,,,0.00,59.000000,,2013-08-18 12:42:00,
2013-08-18 07:52:00,56.0,56.0,-100.00,NE,48,0.0,1.0,100,0.00,,,0.00,59.000000,,2013-08-18 12:52:00,
2013-08-18 08:01:00,56.0,56.0,-100.00,NE,48,0.0,1.0,100,0.00,,,0.00,59.000000,,2013-08-18 13:01:00,
2013-08-18 08:11:00,56.0,56.0,-100.00,NE,48,0.0,1.0,100,0.00,,,0.00,59.000000,,2013-08-18 13:11:00,
2013-08-18 08:42:00,64.0,58.0,-100.00,SE,146,4.0,5.0,80,0.00,,,0.00,216.000000,,2013-08-18 13:42:00,
2013-08-18 08:52:00,64.0,58.0,-100.00,SE,146,4.0,5.0,80,0.00,,,0.00,216.000000,,2013-08-18 13:52:00,
2013-08-18 09:02:00,64.0,58.0,-100.00,SE,146,4.0,5.0,80,0.00,,,0.00,216.000000,,2013-08-18 14:02:00,
2013-08-18 09:11:00,64.0,58.0,-100.00,SE,146,4.0,5.0,80,0.00,,,0.00,216.000000,,2013-08-18 14:11:00,
2013-08-18 09:42:00,71.0,59.0,-100.00,South,185,3.0,5.0,65,0.00,,,0.00,385.000000,,2013-08-18 14:42:00,
2013-08-18 09:53:00,71.0,59.0,-100.00,South,185,3.0,5.0,65,0.00,,,0.00,385.000000,,2013-08-18 14:53:00,
2013-08-18 10:01:00,71.0,59.0,-100.00,South,185,3.0,5.0,65,0.00,,,0.00,385.000000,,2013-08-18 15:01:00,
2013-08-18 10:11:00,71.0,59.0,-100.00,South,185,3.0,5.0,65,0.00,,,0.00,385.000000,,2013-08-18 15:11:00,
2013-08-18 10:43:00,76.0,60.0,-100.00,SE,133,4.0,7.0,57,0.00,,,0.00,553.000000,,2013-08-18 15:43:00,
2013-08-18 10:54:00,76.0,60.0,-100.00,SE,133,4.0,7.0,57,0.00,,,0.00,553.000000,,2013-08-18 15:54:00,
2013-08-18 11:03:00,76.0,60.0,-100.00,SE,133,4.0,7.0,57,0.00,,,0.00,553.000000,,2013-08-18 16:03:00,
2013-08-18 11:13:00,76.0,60.0,-100.00,SE,133,4.0,7.0,57,0.00,,,0.00,553.000000,,2013-08-18 16:13:00,
2013-08-18 11:42:00,81.0,57.0,-100.00,South,182,3.0,7.0,44,0.00,,,0.00,685.000000,,2013-08-18 16:42:00,
2013-08-18 11:52:00,81.0,57.0,-100.00,South,182,3.0,7.0,44,0.00,,,0.00,685.000000,,2013-08-18 16:52:00,
2013-08-18 12:02:00,81.0,57.0,-100.00,South,182,3.0,7.0,44,0.00,,,0.00,685.000000,,2013-08-18 17:02:00,
2013-08-18 12:13:00,81.0,57.0,-100.00,South,182,3.0,7.0,44,0.00,,,0.00,685.000000,,2013-08-18 17:13:00,
2013-08-18 12:43:00,82.0,54.0,-100.00,SW,232,2.0,9.0,38,0.00,,,0.00,800.000000,,2013-08-18 17:43:00,
2013-08-18 12:52:00,82.0,54.0,-100.00,SW,232,2.0,9.0,38,0.00,,,0.00,800.000000,,2013-08-18 17:52:00,
2013-08-18 13:02:00,82.0,54.0,-100.00,SW,232,2.0,9.0,38,0.00,,,0.00,800.000000,,2013-08-18 18:02:00,
2013-08-18 13:12:00,82.0,54.0,-100.00,SW,232,2.0,9.0,38,0.00,,,0.00,800.000000,,2013-08-18 18:12:00,
2013-08-18 13:42:00,82.0,54.0,-100.00,SE,142,7.0,11.0,38,0.00,,,0.00,829.000000,,2013-08-18 18:42:00,
2013-08-18 13:52:00,82.0,54.0,-100.00,SE,142,7.0,11.0,38,0.00,,,0.00,829.000000,,2013-08-18 18:52:00,
2013-08-18 14:01:00,82.0,54.0,-100.00,SE,142,7.0,11.0,38,0.00,,,0.00,829.000000,,2013-08-18 19:01:00,
2013-08-18 14:11:00,82.0,54.0,-100.00,SE,142,7.0,11.0,38,0.00,,,0.00,829.000000,,2013-08-18 19:11:00,
2013-08-18 14:42:00,83.0,53.0,-100.00,SE,132,7.0,15.0,36,0.00,,,0.00,810.000000,,2013-08-18 19:42:00,
2013-08-18 14:52:00,83.0,53.0,-100.00,SE,132,7.0,15.0,36,0.00,,,0.00,810.000000,,2013-08-18 19:52:00,
2013-08-18 15:02:00,83.0,53.0,-100.00,SE,132,7.0,15.0,36,0.00,,,0.00,810.000000,,2013-08-18 20:02:00,
2013-08-18 15:12:00,83.0,53.0,-100.00,SE,132,7.0,15.0,36,0.00,,,0.00,810.000000,,2013-08-18 20:12:00,
2013-08-18 15:42:00,83.0,53.0,-100.00,SE,146,8.0,16.0,36,0.00,,,0.00,702.000000,,2013-08-18 20:42:00,
2013-08-18 15:52:00,83.0,53.0,-100.00,SE,146,8.0,16.0,36,0.00,,,0.00,702.000000,,2013-08-18 20:52:00,
2013-08-18 16:01:00,83.0,53.0,-100.00,SE,146,8.0,16.0,36,0.00,,,0.00,702.000000,,2013-08-18 21:01:00,
2013-08-18 16:11:00,83.0,53.0,-100.00,SE,146,8.0,16.0,36,0.00,,,0.00,702.000000,,2013-08-18 21:11:00,
2013-08-18 16:42:00,83.0,53.0,-100.00,South,191,7.0,17.0,36,0.00,,,0.00,656.000000,,2013-08-18 21:42:00,
2013-08-18 16:53:00,83.0,53.0,-100.00,South,191,7.0,17.0,36,0.00,,,0.00,656.000000,,2013-08-18 21:53:00,
2013-08-18 17:03:00,83.0,53.0,-100.00,South,191,7.0,17.0,36,0.00,,,0.00,656.000000,,2013-08-18 22:03:00,
2013-08-18 17:13:00,83.0,53.0,-100.00,South,191,7.0,17.0,36,0.00,,,0.00,656.000000,,2013-08-18 22:13:00,
2013-08-18 17:42:00,83.0,54.0,-100.00,South,171,5.0,13.0,37,0.00,,,-99.99,486.000000,,2013-08-18 22:42:00,
2013-08-18 17:52:00,83.0,54.0,-100.00,South,171,5.0,13.0,37,0.00,,,-99.99,486.000000,,2013-08-18 22:52:00,
2013-08-18 18:02:00,83.0,54.0,-100.00,South,171,5.0,13.0,37,0.00,,,-99.99,486.000000,,2013-08-18 23:02:00,
2013-08-18 18:11:00,83.0,54.0,-100.00,South,171,5.0,13.0,37,0.00,,,-99.99,486.000000,,2013-08-18 23:11:00,
2013-08-18 18:42:00,81.0,52.0,-100.00,SW,229,5.0,10.0,36,0.00,,,0.00,319.000000,,2013-08-18 23:42:00,
2013-08-18 18:52:00,81.0,52.0,-100.00,SW,229,5.0,10.0,36,0.00,,,0.00,319.000000,,2013-08-18 23:52:00,
2013-08-18 19:02:00,81.0,52.0,-100.00,SW,229,5.0,10.0,36,0.00,,,0.00,319.000000,,2013-08-19 00:02:00,
2013-08-18 19:11:00,81.0,52.0,-100.00,SW,229,5.0,10.0,36,0.00,,,0.00,319.000000,,2013-08-19 00:11:00,
2013-08-18 19:42:00,78.0,53.0,-100.00,SW,222,2.0,7.0,42,0.00,,,0.00,142.000000,,2013-08-19 00:42:00,
2013-08-18 19:52:00,78.0,53.0,-100.00,SW,222,2.0,7.0,42,0.00,,,0.00,142.000000,,2013-08-19 00:52:00,
2013-08-18 20:02:00,78.0,53.0,-100.00,SW,222,2.0,7.0,42,0.00,,,0.00,142.000000,,2013-08-19 01:02:00,
2013-08-18 20:11:00,78.0,53.0,-100.00,SW,222,2.0,7.0,42,0.00,,,0.00,142.000000,,2013-08-19 01:11:00,
2013-08-18 20:42:00,69.0,56.0,-100.00,ESE,109,2.0,3.0,63,0.00,,,0.00,22.000000,,2013-08-19 01:42:00,
2013-08-18 20:52:00,69.0,56.0,-100.00,ESE,109,2.0,3.0,63,0.00,,,0.00,22.000000,,2013-08-19 01:52:00,
2013-08-18 21:06:00,69.0,56.0,-100.00,ESE,109,2.0,3.0,63,0.00,,,0.00,22.000000,,2013-08-19 02:06:00,
2013-08-18 21:11:00,69.0,56.0,-100.00,ESE,109,2.0,3.0,63,0.00,,,0.00,22.000000,,2013-08-19 02:11:00,
2013-08-18 21:42:00,68.0,57.0,-100.00,SE,142,4.0,5.0,69,0.00,,,0.00,0.000000,,2013-08-19 02:42:00,
2013-08-18 21:52:00,68.0,57.0,-100.00,SE,142,4.0,5.0,69,0.00,,,0.00,0.000000,,2013-08-19 02:52:00,
2013-08-18 22:01:00,68.0,57.0,-100.00,SE,142,4.0,5.0,69,0.00,,,0.00,0.000000,,2013-08-19 03:01:00,
2013-08-18 22:11:00,68.0,57.0,-100.00,SE,142,4.0,5.0,69,0.00,,,0.00,0.000000,,2013-08-19 03:11:00,
2013-08-18 22:42:00,64.0,57.0,-100.00,NNE,32,0.0,4.0,79,0.00,,,0.00,0.000000,,2013-08-19 03:42:00,
2013-08-18 22:53:00,64.0,57.0,-100.00,NNE,32,0.0,4.0,79,0.00,,,0.00,0.000000,,2013-08-19 03:53:00,
2013-08-18 23:03:00,64.0,57.0,-100.00,NNE,32,0.0,4.0,79,0.00,,,0.00,0.000000,,2013-08-19 04:03:00,
2013-08-18 23:12:00,64.0,57.0,-100.00,NNE,32,0.0,4.0,79,0.00,,,0.00,0.000000,,2013-08-19 04:12:00,
2013-08-18 23:42:00,62.0,58.0,-100.00,ESE,121,1.0,3.0,86,0.00,,,0.00,0.000000,,2013-08-19 04:42:00,
2013-08-18 23:53:00,62.0,58.0,-100.00,ESE,121,1.0,3.0,86,0.00,,,0.00,0.000000,,2013-08-19 04:53:00,